Location: Arrington
(35.8681°N, 86.7092°W)
Time: 17:06:41
(UTC+00:00)

SL-4 R/B - Pass Details

Date: 23 November 2019
Orbit: 428 x 667 km, 51.6° (Epoch: 06 December)

Event Time Altitude Azimuth Distance (km) Brightness Sun altitude
Exits shadow 09:48:28 33° 80° (E) 1,122 4.0 -32.6°
Drops below altitude 10° 09:51:30 10° 107° (ESE) 2,077 5.8 -32.0°
Sets 09:53:56 0° 114° (ESE) 2,974 6.7 -31.5°
